Regional Weather Roundup
Issued by NWS

Home | Current Version | Previous Version | Text Only | Print | Product List | Glossary Off
Versions: 1 2 3 4 5 6 7 8 9 10 11 12 13 14 15 16 17 18 19 20 21 22 23 24 25 26 27 28 29 30 31 32 33 34 35 36 37 38 39 40 41 42 43 44 45 46 47 48 49 50

000
ASUS43 KFSD 290102
RWRSD

WEATHER ROUNDUP FOR SOUTH DAKOTA
NATIONAL WEATHER SERVICE SIOUX FALLS SD
800 PM CDT SAT MAY 28 2016

NOTE: "FAIR" INDICATES FEW OR NO CLOUDS BELOW 12,000 FEET WITH NO
SIGNIFICANT WEATHER AND/OR OBSTRUCTIONS TO VISIBILITY.


SDZ001>005-009-010-012>017-290200-
NORTHWEST AND NORTH CENTRAL SOUTH DAKOTA

CITY           SKY/WX    TMP DP  RH WIND       PRES   REMARKS
BUFFALO          N/A     70  44  39 N14       29.89R
FAITH            N/A     65  51  60 S3        29.93R
MOBRIDGE       HVY RAIN  61  55  81 NW12      29.92R
$$

SDZ012>016-024>037-041>051-057-063-072>074-290200-
SOUTHWEST AND SOUTH CENTRAL SOUTH DAKOTA

CITY           SKY/WX    TMP DP  RH WIND       PRES   REMARKS
RAPID CTY ARPT CLOUDY    60  53  77 S7        29.97R
PIERRE         CLOUDY    67  57  70 SE6       29.88R
CUSTER         CLOUDY    49  45  86 NW3       30.05R
ELLSWORTH AFB  CLOUDY    64  52  64 SW6       29.96R
PHILIP         CLOUDY    69  52  54 NW3       29.92R
PINE RIDGE     LGT RAIN  54  49  83 N10G26    29.99R
WINNER         FAIR      71  56  58 E6        29.91R
$$

SDZ004>011-016>023-039-040-290200-
NORTHEAST SOUTH DAKOTA

CITY           SKY/WX    TMP DP  RH WIND       PRES   REMARKS
ABERDEEN       MOSUNNY   70  56  61 SW3       29.86R
WATERTOWN      CLOUDY    63  58  83 NW6       29.85R
BROOKINGS      CLOUDY    63  57  81 CALM      29.85R
SISSETON         N/A     63  60  90 W6        29.82R
$$

SDZ017-020-022-023-036>040-048>070-290200-
SOUTHEAST SOUTH DAKOTA

CITY           SKY/WX    TMP DP  RH WIND       PRES   REMARKS
SIOUX FALLS    CLOUDY    62  59  90 N6        29.85R
HURON          CLOUDY    66  60  81 CALM      29.86S
MITCHELL       MOCLDY    65  60  84 NW7       29.88R
YANKTON        MOCLDY    63  55  77 NW8       29.87R
$$

ABBREVIATIONS USED IN REMARKS
   TC - TEMPERATURE IN CELSIUS
  WCI - WIND CHILL INDEX
   HX - HEAT INDEX
  VSB - VISIBILITY





USA.gov is the U.S. government's official web portal to all federal, state and local government web resources and services.